Flag for Germany Weather past 2 weeks in Waren (Müritz), Mecklenburg-Western Pomerania, Germany

Now
68 °F

Scattered clouds.


Feels Like: 68 °F
Forecast: 55 / 81 °F
Wind: 22 mph from West

Location: Laage

Current Time: Jul 6, 2015 at 11:29:13 AM

Latest Report: Jul 6, 2015 at 10:20 AM


Visibility: N/A

Pressure: 30.04 "Hg

Humidity: 60%

Dew point: 54 °F

Location of Waren (Müritz)Location

Historic Weather in Waren (Müritz) — Graph

°F

Waren (Müritz) temperature yesterday

Maximum temperature yesterday: 90 °F (at 3:20 PM)
Minimum temperature yesterday: 66 °F (at 5:20 AM)
Average temperature yesterday: 78 °F

Past Weeks' High & Low Weather Summary

 TemperatureHumidityPressure
High95 °F (Jul 4, 3:20 PM)100% (Jun 22, 6:20 AM)30.30 "Hg (Jun 22, 6:20 AM)
Low50 °F (Jun 23, 3:50 AM)33% (Jul 3, 2:45 PM)29.59 "Hg (Jun 23, 1:20 AM)
Average65 °F73%30.04 "Hg
* Reported Jun 21 9:20 AM — Jul 6 9:20 AM, Waren (Müritz), Weather by CustomWeather, © 2015

Note: Actual official high and low records may vary slightly from our data, if they occured in-between our weather recording intervals... More about our weather records

Advertising

Waren (Müritz) weather history for previous 24 hours

 ConditionsComfort  
Time TempWeatherWind HumidityBarometerVisibility
9:20 AM
Mon, Jul 6
66 °FScattered clouds.20 mph68%30.01 "HgN/A
8:20 AM64 °FScattered clouds.17 mph78%29.98 "HgN/A
7:20 AM63 °FScattered clouds.16 mph88%29.98 "HgN/A
6:20 AM63 °FPartly sunny.15 mph88%29.95 "HgN/A
5:20 AM64 °FPassing clouds.17 mph88%29.95 "HgN/A
4:20 AM66 °FPartly cloudy.16 mph88%29.95 "HgN/A
3:20 AM68 °FLight rain. Partly cloudy.8 mph94%29.92 "Hg6 mi
2:20 AM68 °FPassing clouds.8 mph94%29.89 "HgN/A
1:20 AM68 °FMostly cloudy.7 mph94%29.89 "HgN/A
12:20 AM68 °FPartly cloudy.7 mph94%29.89 "HgN/A
11:20 PM
Sun, Jul 5
68 °FThunderstorms. Passing clouds.7 mph94%29.89 "HgN/A
10:20 PM68 °FStrong thunderstorms. Partly sunny.21 mph94%29.95 "Hg2 mi
10:04 PM70 °FStrong thunderstorms. Partly sunny.26 mph88%29.95 "Hg1 mi
9:20 PM79 °FLight rain. More clouds than sun.10 mph74%29.86 "HgN/A
8:20 PM81 °FBroken clouds.10 mph70%29.89 "HgN/A
7:20 PM84 °FBroken clouds.10 mph62%29.89 "HgN/A
6:20 PM88 °FBroken clouds.9 mph55%29.92 "HgN/A
5:20 PM90 °FPartly sunny.3 mph41%29.95 "HgN/A
4:20 PM90 °FBroken clouds.5 mph41%29.98 "HgN/A
3:20 PM90 °FPartly sunny.5 mph41%29.98 "HgN/A
2:20 PM86 °FPartly sunny.5 mph46%30.01 "HgN/A
1:20 PM88 °FPartly sunny.3 mph46%30.01 "HgN/A
12:20 PM88 °FScattered clouds.2 mph46%30.01 "HgN/A
11:20 AM84 °FPartly sunny.3 mph55%30.04 "HgN/A
Weather by CustomWeather, © 2015

See weather overviewHow to use our weather pages